DW9433 Weather Reports


Display with metric or nautical units.
time (UTC)temp
F
wind
direction
speed
MPH
gust
MPH
rain 1hr
in
rain 24hr
in
rain mn
in
humidity
%
barometer
mb
20260831230013 94 32 0.0 0.0 0.00 0.00 0.00 54 1014.9
20260831224509 95 31 0.0 0.0 0.00 0.00 0.00 53 1015.0
20260831223009 95 33 0.0 0.0 0.00 0.00 0.00 53 1015.1
20260831221517 95 33 0.0 2.0 0.00 0.00 0.00 51 1015.2
20260831220133 95 28 0.0 1.0 0.00 0.00 0.00 52 1015.2
20260831214507 95 40 0.0 0.0 0.00 0.00 0.00 50 1015.3
20260831213014 95 43 0.0 0.0 0.00 0.00 0.00 50 1015.5
20260831211504 95 38 0.0 0.0 0.00 0.00 0.00 51 1015.5
20260831210100 96 42 0.0 0.0 0.00 0.00 0.00 52 1015.6
20260831204603 96 31 0.0 0.0 0.00 0.00 0.00 51 1015.7
20260831203132 95 30 0.0 1.0 0.00 0.00 0.00 53 1015.9
20260831201558 96 31 0.0 0.0 0.00 0.00 0.00 52 1016.0
20260831200057 96 29 0.0 3.0 0.00 0.00 0.00 52 1016.2
20260831194556 96 27 0.0 2.0 0.00 0.00 0.00 51 1016.3
20260831193056 95 25 0.0 3.0 0.00 0.00 0.00 53 1016.5
20260831191556 94 47 0.0 0.0 0.00 0.00 0.00 54 1016.7
20260831190125 95 34 0.0 2.0 0.00 0.00 0.00 52 1016.8
20260831184555 96 32 0.0 3.0 0.00 0.00 0.00 52 1017.0
20260831183054 96 42 0.0 2.0 0.00 0.00 0.00 53 1017.3
20260831181557 96 264 0.0 1.0 0.00 0.00 0.00 53 1017.5
20260831180050 95 187 0.0 0.0 0.00 0.00 0.00 54 1017.6
20260831174552 95 49 0.0 3.0 0.00 0.00 0.00 55 1017.9
20260831173049 95 149 0.0 6.0 0.00 0.00 0.00 54 1018.0
20260831171549 94 19 0.0 2.0 0.00 0.00 0.00 55 1018.2
20260831170049 94 317 0.0 1.0 0.00 0.00 0.00 56 1018.4
20260831164547 95 196 0.0 0.0 0.00 0.00 0.00 54 1018.4
20260831163046 94 182 0.0 1.0 0.00 0.00 0.00 56 1018.5
20260831161542 94 173 0.0 1.0 0.00 0.00 0.00 57 1018.5
20260831154538 92 292 0.0 2.0 0.00 0.00 0.00 60 1018.5
20260831153113 92 248 0.0 6.0 0.00 0.00 0.00 61 1018.5
20260831151534 91 147 0.0 4.0 0.00 0.00 0.00 63 1018.3
20260831150034 90 250 0.0 3.0 0.00 0.00 0.00 64 1018.3
20260831144527 89 177 0.0 3.0 0.00 0.00 0.00 66 1018.3
20260831143024 88 108 0.0 3.0 0.00 0.00 0.00 69 1018.4
20260831141523 87 183 0.0 1.0 0.00 0.00 0.00 70 1018.3
20260831140018 85 183 0.0 2.0 0.00 0.00 0.00 73 1018.4
20260831134513 83 180 0.0 0.0 0.00 0.00 0.00 76 1018.4
20260831133008 81 180 0.0 0.0 0.00 0.00 0.00 80 1018.2
20260831131511 78 180 0.0 1.0 0.00 0.00 0.00 83 1018.2
20260831130006 76 181 0.0 0.0 0.00 0.00 0.00 88 1018.1
20260831124506 74 142 0.0 0.0 0.00 0.00 0.00 92 1018.0
20260831123002 72 134 0.0 0.0 0.00 0.00 0.00 94 1017.7
20260831121504 72 134 0.0 0.0 0.00 0.00 0.00 93 1017.6
20260831120144 71 134 0.0 0.0 0.00 0.00 0.00 93 1017.5
20260831114559 71 134 0.0 0.0 0.00 0.00 0.00 92 1017.3
20260831113059 72 134 0.0 0.0 0.00 0.00 0.00 92 1017.2
20260831111600 72 134 0.0 0.0 0.00 0.00 0.00 92 1017.1
20260831110054 72 134 0.0 0.0 0.00 0.00 0.00 92 1017.0
20260831104552 72 134 0.0 0.0 0.00 0.00 0.00 92 1016.8
20260831103051 72 134 0.0 0.0 0.00 0.00 0.00 92 1016.7
20260831101549 72 134 0.0 0.0 0.00 0.00 0.00 91 1016.6
20260831100050 73 134 0.0 0.0 0.00 0.00 0.00 91 1016.3
20260831094600 73 134 0.0 0.0 0.00 0.00 0.00 91 1016.3
20260831093045 73 134 0.0 0.0 0.00 0.00 0.00 91 1016.3
20260831091544 73 134 0.0 0.0 0.00 0.00 0.00 89 1016.3
20260831090042 73 134 0.0 0.0 0.00 0.00 0.00 89 1016.2
20260831084546 74 134 0.0 0.0 0.00 0.00 0.00 88 1016.2
20260831083050 74 134 0.0 0.0 0.00 0.00 0.00 88 1016.1
20260831081544 74 134 0.0 0.0 0.00 0.00 0.00 88 1015.9
20260831080036 75 134 0.0 0.0 0.00 0.00 0.00 87 1015.9
20260831074535 75 134 0.0 0.0 0.00 0.00 0.00 87 1015.9
20260831073034 76 134 0.0 0.0 0.00 0.00 0.00 86 1015.8
20260831071533 76 134 0.0 0.0 0.00 0.00 0.00 85 1016.0
20260831070038 76 134 0.0 0.0 0.00 0.00 0.00 85 1016.1
20260831064529 76 134 0.0 0.0 0.00 0.00 0.00 84 1016.1
20260831063027 77 134 0.0 0.0 0.00 0.00 0.00 83 1016.3
20260831061524 77 134 0.0 0.0 0.00 0.00 0.00 82 1016.3
20260831060021 78 134 0.0 0.0 0.00 0.00 0.00 81 1016.3
20260831054518 79 134 0.0 0.0 0.00 0.00 0.00 80 1016.4
20260831053015 80 134 0.0 0.0 0.00 0.00 0.00 78 1016.3
20260831051521 81 134 0.0 0.0 0.00 0.00 0.00 76 1016.2
20260831050008 82 134 0.0 0.0 0.00 0.00 0.00 74 1016.1
20260831044507 82 134 0.0 0.0 0.00 0.00 0.00 72 1016.2
20260831043007 83 134 0.0 0.0 0.00 0.00 0.00 72 1016.3
20260831041507 83 132 0.0 0.0 0.00 0.00 0.00 72 1016.2
20260831040019 83 132 0.0 0.0 0.00 0.00 0.00 71 1016.3
20260831034505 84 133 0.0 0.0 0.00 0.00 0.00 70 1016.2
20260831033007 84 152 0.0 0.0 0.00 0.00 0.00 70 1016.1
20260831031507 84 159 0.0 0.0 0.00 0.00 0.00 69 1015.9
20260831030004 84 166 0.0 0.0 0.00 0.00 0.00 70 1015.8
20260831024504 84 155 0.0 0.0 0.00 0.00 0.00 70 1015.8
20260831023005 84 181 0.0 0.0 0.00 0.00 0.00 71 1015.8
20260831021512 83 181 0.0 0.0 0.00 0.00 0.00 73 1015.6
20260831020003 83 181 0.0 0.0 0.00 0.00 0.00 73 1015.4
20260831014502 83 181 0.0 0.0 0.00 0.00 0.00 73 1015.3
20260831013002 84 181 0.0 0.0 0.00 0.00 0.00 72 1015.2
20260831011504 85 181 0.0 0.0 0.00 0.00 0.00 70 1015.0
20260831010001 87 181 0.0 0.0 0.00 0.00 0.00 67 1014.9
20260831004600 88 181 0.0 0.0 0.00 0.00 0.00 64 1014.8
20260831003100 90 181 0.0 0.0 0.00 0.00 0.00 61 1014.8
20260831001608 91 181 0.0 0.0 0.00 0.00 0.00 59 1014.7
20260831000059 91 170 0.0 0.0 0.00 0.00 0.00 58 1014.7
20260830234558 92 149 0.0 0.0 0.00 0.00 0.00 57 1014.7
20260830233058 93 159 0.0 5.0 0.00 0.00 0.00 55 1014.6
20260830231558 93 200 0.0 2.0 0.00 0.00 0.00 56 1014.5